| time (UTC) | temp F | wind direction | speed MPH | gust MPH | rain 1hr in | rain 24hr in | rain mn in | humidity % | barometer mb |
| 20260510054744 | 67 | 210 | 0.0 | 0.0 | 0.00 | 0.00 | 0.00 | 99 | |
| 20260510054241 | 67 | 264 | 0.0 | 0.0 | 0.00 | 0.00 | 0.00 | 99 | |
| 20260510053740 | 67 | 270 | 0.0 | 0.0 | 0.00 | 0.00 | 0.00 | 99 | |
| 20260510053236 | 67 | 269 | 0.0 | 0.0 | 0.00 | 0.00 | 0.00 | 99 | |
| 20260510052732 | 67 | 264 | 0.0 | 0.0 | 0.00 | 0.00 | 0.00 | 99 | |
| 20260510052228 | 67 | 246 | 0.0 | 0.0 | 0.00 | 0.00 | 0.00 | 99 | |
| 20260510051724 | 67 | 255 | 0.0 | 0.0 | 0.00 | 0.00 | 0.00 | 99 | |
| 20260510051221 | 67 | 263 | 0.0 | 0.0 | 0.00 | 0.00 | 0.00 | 99 | |
| 20260510050718 | 67 | 259 | 0.0 | 0.0 | 0.00 | 0.00 | 0.00 | 99 | |
| 20260510050215 | 67 | 286 | 0.0 | 0.0 | 0.00 | 0.00 | 0.00 | 99 | |
| 20260510045712 | 67 | 287 | 0.0 | 0.0 | 0.00 | 2.03 | 2.03 | 99 | |
| 20260510045209 | 67 | 263 | 0.0 | 0.0 | 0.00 | 2.03 | 2.03 | 99 | |
| 20260510044705 | 66 | 264 | 0.0 | 2.0 | 0.00 | 2.03 | 2.03 | 99 | |
| 20260510044203 | 66 | 255 | 0.0 | 0.0 | 0.00 | 2.03 | 2.03 | 99 | |
| 20260510043658 | 66 | 265 | 0.0 | 0.0 | 0.00 | 2.03 | 2.03 | 99 | |
| 20260510043155 | 66 | 261 | 0.0 | 0.0 | 0.00 | 2.03 | 2.03 | 99 | |
| 20260510042652 | 66 | 291 | 0.0 | 0.0 | 0.00 | 2.03 | 2.03 | 99 | |
| 20260510042148 | 66 | 261 | 0.0 | 0.0 | 0.00 | 2.03 | 2.03 | 99 | |
| 20260510041646 | 66 | 271 | 0.0 | 0.0 | 0.00 | 2.03 | 2.03 | 99 | |
| 20260510041143 | 66 | 267 | 0.0 | 0.0 | 0.00 | 2.03 | 2.03 | 99 | |
| 20260510040640 | 66 | 274 | 0.0 | 0.0 | 0.00 | 2.03 | 2.03 | 99 | |
| 20260510040136 | 66 | 305 | 1.0 | 1.0 | 0.00 | 2.03 | 2.03 | 99 | |
| 20260510035631 | 66 | 265 | 0.0 | 0.0 | 0.00 | 2.03 | 2.03 | 99 | |
| 20260510035127 | 66 | 261 | 0.0 | 0.0 | 0.00 | 2.03 | 2.03 | 99 | |
| 20260510034624 | 66 | 271 | 0.0 | 0.0 | 0.00 | 2.03 | 2.03 | 99 | |
| 20260510034121 | 66 | 256 | 0.0 | 0.0 | 0.00 | 2.03 | 2.03 | 99 | |
| 20260510033618 | 66 | 291 | 0.0 | 2.0 | 0.00 | 2.03 | 2.03 | 99 | |
| 20260510033115 | 66 | 254 | 0.0 | 0.0 | 0.00 | 2.03 | 2.03 | 99 | |
| 20260510032612 | 66 | 240 | 0.0 | 0.0 | 0.00 | 2.03 | 2.03 | 99 | |
| 20260510032107 | 66 | 256 | 0.0 | 0.0 | 0.00 | 2.03 | 2.03 | 99 | |
| 20260510031602 | 66 | 257 | 0.0 | 0.0 | 0.00 | 2.03 | 2.03 | 99 | |
| 20260510031059 | 66 | 256 | 0.0 | 0.0 | 0.00 | 2.03 | 2.03 | 99 | |
| 20260510030554 | 66 | 266 | 0.0 | 0.0 | 0.00 | 2.03 | 2.03 | 99 | |
| 20260510030052 | 66 | 266 | 0.0 | 1.0 | 0.00 | 2.03 | 2.03 | 99 | |
| 20260510025548 | 66 | 227 | 0.0 | 1.0 | 0.00 | 2.03 | 2.03 | 99 | |
| 20260510025046 | 66 | 251 | 0.0 | 1.0 | 0.00 | 2.03 | 2.03 | 99 | |
| 20260510024542 | 66 | 213 | 0.0 | 0.0 | 0.00 | 2.03 | 2.03 | 99 | |
| 20260510024039 | 66 | 236 | 0.0 | 0.0 | 0.00 | 2.03 | 2.03 | 99 | |
| 20260510023535 | 66 | 252 | 0.0 | 0.0 | 0.00 | 2.03 | 2.03 | 99 | |
| 20260510023033 | 66 | 216 | 0.0 | 1.0 | 0.00 | 2.03 | 2.03 | 99 | |
| 20260510022532 | 66 | 256 | 0.0 | 0.0 | 0.00 | 2.03 | 2.03 | 99 | |
| 20260510022032 | 66 | 249 | 0.0 | 1.0 | 0.00 | 2.03 | 2.03 | 99 | |
| 20260510021529 | 66 | 253 | 0.0 | 0.0 | 0.00 | 2.03 | 2.03 | 99 | |
| 20260510021026 | 66 | 288 | 2.0 | 2.0 | 0.00 | 2.03 | 2.03 | 99 | |
| 20260510020521 | 66 | 203 | 1.0 | 1.0 | 0.00 | 2.03 | 2.03 | 99 | |
| 20260510020016 | 66 | 300 | 0.0 | 1.0 | 0.00 | 2.03 | 2.03 | 99 | |
| 20260510015512 | 66 | 255 | 0.0 | 1.0 | 0.00 | 2.03 | 2.03 | 99 | |
| 20260510015008 | 66 | 234 | 0.0 | 1.0 | 0.00 | 2.03 | 2.03 | 99 | |
| 20260510014505 | 66 | 320 | 1.0 | 2.0 | 0.00 | 2.03 | 2.03 | 99 | |
| 20260510014002 | 66 | 251 | 0.0 | 3.0 | 0.00 | 2.03 | 2.03 | 99 | |
| 20260510013456 | 66 | 187 | 2.0 | 3.0 | 0.00 | 2.03 | 2.03 | 99 | |
| 20260510012953 | 66 | 169 | 3.0 | 5.0 | 0.07 | 2.03 | 2.03 | 99 | |
| 20260510012447 | 66 | 222 | 1.0 | 3.0 | 0.07 | 2.03 | 2.03 | 99 | |
| 20260510011942 | 66 | 229 | 2.0 | 2.0 | 0.07 | 2.02 | 2.02 | 99 | |
| 20260510011437 | 66 | 242 | 0.0 | 0.0 | 0.07 | 2.02 | 2.02 | 99 | |
| 20260510010934 | 66 | 246 | 0.0 | 1.0 | 0.05 | 2.01 | 2.01 | 99 | |
| 20260510010432 | 66 | 229 | 0.0 | 0.0 | 0.07 | 2.00 | 2.00 | 99 | |
| 20260510005928 | 66 | 218 | 0.0 | 0.0 | 0.07 | 2.00 | 2.00 | 99 | |
| 20260510005424 | 66 | 192 | 0.0 | 0.0 | 0.05 | 1.99 | 1.99 | 99 | |
| 20260510004921 | 66 | 243 | 0.0 | 0.0 | 0.05 | 1.99 | 1.99 | 99 | |
| 20260510004419 | 66 | 252 | 0.0 | 0.0 | 0.07 | 1.98 | 1.98 | 99 | |
| 20260510003917 | 66 | 252 | 0.0 | 0.0 | 0.07 | 1.98 | 1.98 | 99 | |
| 20260510003414 | 66 | 259 | 0.0 | 0.0 | 0.05 | 1.97 | 1.97 | 99 | |
| 20260510002913 | 66 | 253 | 0.0 | 0.0 | 0.00 | 1.96 | 1.96 | 99 | |
| 20260510002410 | 66 | 246 | 0.0 | 0.0 | 0.00 | 1.96 | 1.96 | 99 | |
| 20260510001906 | 66 | 258 | 0.0 | 0.0 | 0.00 | 1.96 | 1.96 | 99 | |
| 20260510001404 | 66 | 271 | 0.0 | 0.0 | 0.00 | 1.96 | 1.96 | 99 | |
| 20260510000901 | 66 | 250 | 0.0 | 0.0 | 0.00 | 1.96 | 1.96 | 99 | |
| 20260510000357 | 66 | 250 | 0.0 | 0.0 | 0.00 | 1.96 | 1.96 | 99 | |
| 20260509235854 | 66 | 239 | 0.0 | 0.0 | 0.00 | 1.96 | 1.96 | 99 | |
| 20260509235350 | 66 | 252 | 0.0 | 0.0 | 0.00 | 1.96 | 1.96 | 99 | |
| 20260509234847 | 66 | 251 | 0.0 | 0.0 | 0.00 | 1.96 | 1.96 | 99 | |
| 20260509234344 | 66 | 207 | 1.0 | 2.0 | 0.00 | 1.96 | 1.96 | 99 | |
| 20260509233842 | 66 | 264 | 0.0 | 0.0 | 0.07 | 1.96 | 1.96 | 99 | |
| 20260509233339 | 66 | 274 | 0.0 | 0.0 | 0.00 | 1.95 | 1.95 | 99 | |
| 20260509232835 | 66 | 256 | 0.0 | 0.0 | 0.00 | 1.95 | 1.95 | 99 | |
| 20260509232333 | 66 | 254 | 0.0 | 0.0 | 0.00 | 1.95 | 1.95 | 99 | |
| 20260509231828 | 66 | 275 | 1.0 | 2.0 | 0.00 | 1.95 | 1.95 | 99 | |
| 20260509231326 | 66 | 282 | 2.0 | 5.0 | 0.05 | 1.95 | 1.95 | 99 | |
| 20260509230823 | 66 | 252 | 1.0 | 6.0 | 0.05 | 1.95 | 1.95 | 99 | |
| 20260509230320 | 66 | 248 | 1.0 | 3.0 | 0.00 | 1.94 | 1.94 | 99 | |
| 20260509225815 | 66 | 147 | 1.0 | 5.0 | 0.07 | 1.94 | 1.94 | 99 | |
| 20260509225312 | 66 | 209 | 2.0 | 2.0 | 0.07 | 1.94 | 1.94 | 99 | |
| 20260509224808 | 66 | 227 | 0.0 | 1.0 | 0.00 | 1.93 | 1.93 | 99 | |
| 20260509224305 | 66 | 215 | 2.0 | 5.0 | 0.05 | 1.93 | 1.93 | 99 | |
| 20260509223801 | 66 | 238 | 0.0 | 2.0 | 0.00 | 1.92 | 1.92 | 99 | |
| 20260509223259 | 66 | 194 | 3.0 | 8.0 | 0.07 | 1.92 | 1.92 | 99 | |
| 20260509222755 | 66 | 207 | 3.0 | 5.0 | 0.12 | 1.92 | 1.92 | 99 | |
| 20260509222250 | 66 | 251 | 0.0 | 2.0 | 0.12 | 1.91 | 1.91 | 99 | |
| 20260509221746 | 66 | 200 | 1.0 | 3.0 | 0.26 | 1.90 | 1.90 | 99 | |
| 20260509221243 | 66 | 221 | 2.0 | 3.0 | 0.17 | 1.88 | 1.88 | 99 | |
| 20260509220739 | 66 | 224 | 1.0 | 2.0 | 0.24 | 1.86 | 1.86 | 99 | |
| 20260509220236 | 66 | 194 | 2.0 | 2.0 | 0.24 | 1.84 | 1.84 | 99 | |
| 20260509215731 | 66 | 258 | 0.0 | 0.0 | 0.31 | 1.82 | 1.82 | 99 | |
| 20260509215228 | 66 | 246 | 0.0 | 0.0 | 0.31 | 1.80 | 1.80 | 99 | |
| 20260509214725 | 66 | 255 | 0.0 | 0.0 | 0.28 | 1.77 | 1.77 | 99 | |
| 20260509214222 | 66 | 246 | 0.0 | 0.0 | 0.28 | 1.75 | 1.75 | 99 | |
| 20260509213719 | 66 | 246 | 1.0 | 2.0 | 0.24 | 1.72 | 1.72 | 99 | |
| 20260509213214 | 66 | 233 | 0.0 | 0.0 | 0.24 | 1.70 | 1.70 | 99 | |
| 20260509212712 | 66 | 237 | 0.0 | 0.0 | 0.24 | 1.67 | 1.67 | 99 | |
| 20260509212209 | 66 | 236 | 0.0 | 0.0 | 0.24 | 1.65 | 1.65 | 99 | |
| 20260509211705 | 66 | 265 | 0.0 | 0.0 | 0.24 | 1.63 | 1.63 | 99 | |
| 20260509211202 | 66 | 264 | 0.0 | 1.0 | 0.24 | 1.61 | 1.61 | 99 | |
| 20260509210658 | 66 | 243 | 0.0 | 0.0 | 0.12 | 1.58 | 1.58 | 99 | |
| 20260509210156 | 66 | 258 | 0.0 | 0.0 | 0.12 | 1.57 | 1.57 | 99 | |
| 20260509205651 | 66 | 237 | 0.0 | 0.0 | 0.17 | 1.56 | 1.56 | 99 | |
| 20260509205150 | 66 | 216 | 1.0 | 1.0 | 0.19 | 1.55 | 1.55 | 99 | |
| 20260509204646 | 66 | 256 | 0.0 | 0.0 | 0.26 | 1.53 | 1.53 | 99 | |
| 20260509204143 | 66 | 281 | 1.0 | 2.0 | 0.17 | 1.51 | 1.51 | 99 | |
| 20260509203639 | 66 | 214 | 4.0 | 5.0 | 0.17 | 1.49 | 1.49 | 99 | |
| 20260509203137 | 66 | 241 | 0.0 | 1.0 | 0.12 | 1.48 | 1.48 | 99 | |
| 20260509202637 | 66 | 201 | 2.0 | 2.0 | 0.07 | 1.46 | 1.46 | 99 | |
| 20260509202133 | 66 | 275 | 1.0 | 1.0 | 0.07 | 1.46 | 1.46 | 99 | |
| 20260509201628 | 66 | 266 | 0.0 | 1.0 | 0.47 | 1.45 | 1.45 | 99 | |
| 20260509201126 | 66 | 246 | 1.0 | 2.0 | 1.02 | 1.45 | 1.45 | 99 | |
| 20260509200621 | 66 | 69 | 0.0 | 2.0 | 0.47 | 1.34 | 1.34 | 99 | |
| 20260509200117 | 66 | 179 | 0.0 | 3.0 | 0.19 | 1.28 | 1.28 | 99 | |
| 20260509195613 | 66 | 190 | 2.0 | 5.0 | 0.07 | 1.26 | 1.26 | 99 | |
| 20260509195108 | 66 | 220 | 3.0 | 3.0 | 0.05 | 1.25 | 1.25 | 99 | |
| 20260509194607 | 67 | 151 | 3.0 | 3.0 | 0.12 | 1.25 | 1.25 | 99 | |
| 20260509194105 | 67 | 241 | 0.0 | 2.0 | 0.07 | 1.24 | 1.24 | 99 | |
| 20260509193601 | 67 | 247 | 0.0 | 6.0 | 0.05 | 1.23 | 1.23 | 99 | |
| 20260509193057 | 67 | 246 | 3.0 | 3.0 | 0.05 | 1.23 | 1.23 | 99 | |
| 20260509192554 | 67 | 214 | 3.0 | 5.0 | 0.00 | 1.22 | 1.22 | 99 | |
| 20260509192048 | 67 | 246 | 1.0 | 2.0 | 0.07 | 1.22 | 1.22 | 99 | |
| 20260509191543 | 67 | 207 | 2.0 | 5.0 | 0.07 | 1.22 | 1.22 | 99 | |
| 20260509191039 | 67 | 221 | 4.0 | 6.0 | 0.05 | 1.21 | 1.21 | 99 | |
| 20260509190536 | 67 | 208 | 2.0 | 5.0 | 0.12 | 1.21 | 1.21 | 99 | |
| 20260509190034 | 67 | 213 | 0.0 | 6.0 | 0.07 | 1.20 | 1.20 | 99 | |
| 20260509185531 | 67 | 218 | 1.0 | 3.0 | 0.12 | 1.19 | 1.19 | 99 | |
| 20260509185027 | 67 | 229 | 1.0 | 3.0 | 0.17 | 1.19 | 1.19 | 99 | |
| 20260509184526 | 67 | 195 | 1.0 | 3.0 | 0.12 | 1.17 | 1.17 | 99 | |
| 20260509184022 | 67 | 234 | 1.0 | 2.0 | 0.07 | 1.16 | 1.16 | 99 | |
| 20260509183517 | 67 | 221 | 0.0 | 1.0 | 0.00 | 1.15 | 1.15 | 99 | |
| 20260509183013 | 67 | 247 | 0.0 | 0.0 | 0.00 | 1.15 | 1.15 | 99 | |
| 20260509182510 | 67 | 235 | 0.0 | 0.0 | 0.00 | 1.15 | 1.15 | 99 | |
| 20260509182007 | 67 | 254 | 0.0 | 0.0 | 0.00 | 1.15 | 1.15 | 99 | |
| 20260509181505 | 67 | 192 | 0.0 | 0.0 | 0.00 | 1.15 | 1.15 | 99 | |
| 20260509181002 | 67 | 241 | 0.0 | 0.0 | 0.00 | 1.15 | 1.15 | 99 | |
| 20260509180457 | 67 | 260 | 0.0 | 0.0 | 0.00 | 1.15 | 1.15 | 99 | |
| 20260509175955 | 67 | 227 | 0.0 | 0.0 | 0.00 | 1.15 | 1.15 | 99 | |
| 20260509175450 | 67 | 259 | 1.0 | 2.0 | 0.00 | 1.15 | 1.15 | 99 | |
| 20260509174947 | 67 | 146 | 0.0 | 1.0 | 0.00 | 1.15 | 1.15 | 99 | |
| 20260509174443 | 67 | 262 | 1.0 | 1.0 | 0.00 | 1.15 | 1.15 | 99 | |
| 20260509173939 | 67 | 248 | 0.0 | 0.0 | 0.00 | 1.15 | 1.15 | 99 | |
| 20260509173433 | 67 | 303 | 0.0 | 1.0 | 0.00 | 1.15 | 1.15 | 99 | |
| 20260509172930 | 67 | 255 | 0.0 | 0.0 | 0.00 | 1.15 | 1.15 | 99 | |
| 20260509172427 | 67 | 253 | 0.0 | 0.0 | 0.00 | 1.15 | 1.15 | 99 | |
| 20260509171922 | 67 | 253 | 0.0 | 2.0 | 0.00 | 1.15 | 1.15 | 99 | |
| 20260509171419 | 66 | 260 | 0.0 | 0.0 | 0.00 | 1.15 | 1.15 | 99 | |
| 20260509170915 | 66 | 278 | 0.0 | 0.0 | 0.00 | 1.15 | 1.15 | 99 | |
| 20260509170411 | 67 | 239 | 0.0 | 0.0 | 0.00 | 1.15 | 1.15 | 99 | |
| 20260509165907 | 67 | 216 | 0.0 | 0.0 | 0.00 | 1.15 | 1.15 | 99 | |
| 20260509165401 | 66 | 226 | 1.0 | 1.0 | 0.00 | 1.15 | 1.15 | 99 | |
| 20260509164857 | 66 | 239 | 0.0 | 2.0 | 0.00 | 1.15 | 1.15 | 99 | |
| 20260509164353 | 66 | 255 | 0.0 | 0.0 | 0.00 | 1.15 | 1.15 | 99 | |
| 20260509163849 | 66 | 245 | 0.0 | 0.0 | 0.00 | 1.15 | 1.15 | 99 | |
| 20260509163346 | 66 | 281 | 0.0 | 2.0 | 0.00 | 1.15 | 1.15 | 99 | |
| 20260509162845 | 66 | 219 | 0.0 | 0.0 | 0.00 | 1.15 | 1.15 | 99 | |
| 20260509162338 | 66 | 248 | 0.0 | 2.0 | 0.00 | 1.15 | 1.15 | 99 | |
| 20260509161835 | 66 | 223 | 1.0 | 2.0 | 0.00 | 1.15 | 1.15 | 99 | |
| 20260509161331 | 66 | 247 | 0.0 | 1.0 | 0.00 | 1.15 | 1.15 | 99 | |
| 20260509160826 | 66 | 255 | 0.0 | 0.0 | 0.00 | 1.15 | 1.15 | 99 | |
| 20260509160323 | 66 | 251 | 0.0 | 0.0 | 0.00 | 1.15 | 1.15 | 99 | |
| 20260509155818 | 66 | 251 | 0.0 | 0.0 | 0.00 | 1.15 | 1.15 | 99 | |
| 20260509155315 | 66 | 222 | 0.0 | 1.0 | 0.00 | 1.15 | 1.15 | 99 | |
| 20260509154811 | 66 | 240 | 0.0 | 1.0 | 0.00 | 1.15 | 1.15 | 99 | |
| 20260509154308 | 66 | 269 | 0.0 | 0.0 | 0.00 | 1.15 | 1.15 | 99 | |
| 20260509153805 | 66 | 336 | 1.0 | 2.0 | 0.00 | 1.15 | 1.15 | 99 | |
| 20260509153301 | 66 | 254 | 0.0 | 2.0 | 0.00 | 1.15 | 1.15 | 99 | |
| 20260509152758 | 66 | 257 | 0.0 | 0.0 | 0.00 | 1.15 | 1.15 | 99 | |
| 20260509152254 | 66 | 220 | 1.0 | 2.0 | 0.00 | 1.15 | 1.15 | 99 | |
| 20260509151751 | 66 | 230 | 1.0 | 2.0 | 0.00 | 1.15 | 1.15 | 99 | |
| 20260509151247 | 66 | 138 | 1.0 | 3.0 | 0.00 | 1.15 | 1.15 | 99 | |
| 20260509150746 | 66 | 256 | 0.0 | 0.0 | 0.00 | 1.15 | 1.15 | 99 | |
| 20260509150244 | 66 | 250 | 0.0 | 0.0 | 0.00 | 1.15 | 1.15 | 99 | |
| 20260509145740 | 66 | 245 | 0.0 | 0.0 | 0.00 | 1.15 | 1.15 | 99 | |
| 20260509145240 | 66 | 260 | 0.0 | 0.0 | 0.00 | 1.15 | 1.15 | 99 | |
| 20260509144737 | 65 | 208 | 0.0 | 0.0 | 0.00 | 1.15 | 1.15 | 99 | |
| 20260509144234 | 65 | 222 | 0.0 | 0.0 | 0.00 | 1.15 | 1.15 | 99 | |
| 20260509143731 | 65 | 257 | 0.0 | 0.0 | 0.00 | 1.15 | 1.15 | 99 | |
| 20260509143229 | 65 | 265 | 0.0 | 0.0 | 0.00 | 1.15 | 1.15 | 99 | |
| 20260509142724 | 65 | 266 | 0.0 | 0.0 | 0.00 | 1.15 | 1.15 | 99 | |
| 20260509142221 | 65 | 45 | 0.0 | 1.0 | 0.07 | 1.15 | 1.15 | 99 | |
| 20260509141716 | 65 | 288 | 0.0 | 0.0 | 0.07 | 1.15 | 1.15 | 99 | |
| 20260509141214 | 65 | 231 | 1.0 | 1.0 | 0.00 | 1.14 | 1.14 | 99 | |
| 20260509140710 | 65 | 222 | 1.0 | 1.0 | 0.00 | 1.14 | 1.14 | 99 | |
| 20260509140208 | 65 | 263 | 0.0 | 0.0 | 0.00 | 1.14 | 1.14 | 99 | |
| 20260509135705 | 65 | 284 | 0.0 | 0.0 | 0.00 | 1.14 | 1.14 | 99 | |
| 20260509135203 | 65 | 256 | 0.0 | 0.0 | 0.00 | 1.14 | 1.14 | 99 | |
| 20260509134659 | 65 | 261 | 0.0 | 0.0 | 0.00 | 1.14 | 1.14 | 99 | |
| 20260509134157 | 65 | 39 | 1.0 | 2.0 | 0.00 | 1.14 | 1.14 | 99 | |
| 20260509133654 | 65 | 281 | 0.0 | 0.0 | 0.00 | 1.14 | 1.14 | 99 | |
| 20260509133151 | 65 | 253 | 0.0 | 1.0 | 0.05 | 1.14 | 1.14 | 99 | |
| 20260509132649 | 65 | 199 | 3.0 | 3.0 | 0.12 | 1.14 | 1.14 | 99 | |
| 20260509132147 | 65 | 257 | 0.0 | 1.0 | 0.07 | 1.13 | 1.13 | 99 | |
| 20260509131643 | 65 | 175 | 0.0 | 2.0 | 0.05 | 1.12 | 1.12 | 99 | |
| 20260509131140 | 65 | 246 | 0.0 | 0.0 | 0.12 | 1.12 | 1.12 | 99 | |
| 20260509130636 | 65 | 254 | 0.0 | 0.0 | 0.12 | 1.11 | 1.11 | 99 | |
| 20260509130132 | 65 | 280 | 0.0 | 1.0 | 0.12 | 1.10 | 1.10 | 99 | |
| 20260509125629 | 65 | 240 | 1.0 | 3.0 | 0.05 | 1.08 | 1.08 | 99 | |
| 20260509125126 | 65 | 225 | 1.0 | 2.0 | 0.17 | 1.08 | 1.08 | 99 | |
| 20260509124622 | 65 | 213 | 1.0 | 1.0 | 0.31 | 1.07 | 1.07 | 99 | |
| 20260509124120 | 65 | 247 | 0.0 | 0.0 | 0.50 | 1.05 | 1.05 | 99 | |
| 20260509123618 | 65 | 253 | 0.0 | 0.0 | 0.59 | 1.01 | 1.01 | 99 | |
| 20260509123114 | 65 | 206 | 1.0 | 1.0 | 0.50 | 0.96 | 0.96 | 99 | |
| 20260509122610 | 65 | 249 | 0.0 | 0.0 | 0.26 | 0.90 | 0.90 | 99 | |
| 20260509122107 | 65 | 263 | 0.0 | 0.0 | 0.28 | 0.88 | 0.88 | 99 | |
| 20260509121604 | 65 | 247 | 0.0 | 0.0 | 0.35 | 0.86 | 0.86 | 99 | |
| 20260509121101 | 65 | 311 | 0.0 | 2.0 | 0.38 | 0.83 | 0.83 | 99 | |
| 20260509120559 | 65 | 304 | 0.0 | 2.0 | 0.59 | 0.80 | 0.80 | 99 | |
| 20260509120057 | 65 | 119 | 1.0 | 2.0 | 0.78 | 0.76 | 0.76 | 99 | |
| 20260509115554 | 65 | 251 | 0.0 | 0.0 | 1.25 | 0.69 | 0.69 | 99 | |
| 20260509115052 | 65 | 251 | 0.0 | 2.0 | 1.56 | 0.63 | 0.63 | 99 | |
| 20260509114550 | 65 | 252 | 1.0 | 3.0 | 0.90 | 0.46 | 0.46 | 99 | |
| 20260509114048 | 66 | 190 | 1.0 | 2.0 | 0.40 | 0.36 | 0.36 | 99 | |
| 20260509113547 | 67 | 225 | 0.0 | 2.0 | 0.05 | 0.30 | 0.30 | 99 | |
| 20260509113044 | 69 | 305 | 5.0 | 7.0 | 0.00 | 0.29 | 0.29 | 99 | |
| 20260509112540 | 70 | 265 | 2.0 | 2.0 | 0.07 | 0.29 | 0.29 | 99 | |
| 20260509112037 | 69 | 250 | 0.0 | 0.0 | 0.00 | 0.28 | 0.28 | 99 | |
| 20260509111534 | 69 | 253 | 0.0 | 0.0 | 0.00 | 0.28 | 0.28 | 99 | |
| 20260509111031 | 69 | 250 | 0.0 | 0.0 | 0.00 | 0.28 | 0.28 | 99 | |
| 20260509110528 | 69 | 254 | 0.0 | 0.0 | 0.00 | 0.28 | 0.28 | 99 | |
| 20260509110025 | 69 | 249 | 0.0 | 0.0 | 0.00 | 0.28 | 0.28 | 99 | |
| 20260509105523 | 69 | 251 | 0.0 | 1.0 | 0.00 | 0.28 | 0.28 | 99 | |
| 20260509105021 | 69 | 245 | 0.0 | 5.0 | 0.00 | 0.28 | 0.28 | 99 | |
| 20260509104517 | 69 | 217 | 0.0 | 0.0 | 0.00 | 0.28 | 0.28 | 99 | |
| 20260509104014 | 69 | 218 | 0.0 | 5.0 | 0.00 | 0.28 | 0.28 | 99 | |
| 20260509103512 | 69 | 249 | 0.0 | 1.0 | 0.00 | 0.28 | 0.28 | 99 | |
| 20260509103010 | 69 | 239 | 1.0 | 2.0 | 0.00 | 0.28 | 0.28 | 99 | |
| 20260509102507 | 69 | 210 | 0.0 | 2.0 | 0.00 | 0.28 | 0.28 | 99 | |
| 20260509102004 | 69 | 232 | 0.0 | 0.0 | 0.00 | 0.28 | 0.28 | 99 | |
| 20260509101500 | 69 | 247 | 0.0 | 0.0 | 0.00 | 0.28 | 0.28 | 99 | |
| 20260509100957 | 69 | 234 | 0.0 | 0.0 | 0.00 | 0.28 | 0.28 | 99 | |
| 20260509100454 | 69 | 233 | 0.0 | 0.0 | 0.00 | 0.28 | 0.28 | 99 | |
| 20260509095951 | 69 | 237 | 0.0 | 0.0 | 0.00 | 0.28 | 0.28 | 99 | |
| 20260509095447 | 69 | 237 | 0.0 | 0.0 | 0.00 | 0.28 | 0.28 | 99 | |
| 20260509094945 | 69 | 239 | 0.0 | 1.0 | 0.00 | 0.28 | 0.28 | 99 | |
| 20260509094441 | 69 | 244 | 0.0 | 1.0 | 0.00 | 0.28 | 0.28 | 99 | |
| 20260509093939 | 69 | 249 | 0.0 | 2.0 | 0.00 | 0.28 | 0.28 | 99 | |
| 20260509093436 | 69 | 257 | 0.0 | 1.0 | 0.00 | 0.28 | 0.28 | 99 | |
| 20260509092934 | 69 | 237 | 0.0 | 0.0 | 0.00 | 0.28 | 0.28 | 99 | |
| 20260509092432 | 69 | 250 | 1.0 | 2.0 | 0.00 | 0.28 | 0.28 | 99 | |
| 20260509091931 | 69 | 226 | 0.0 | 0.0 | 0.00 | 0.28 | 0.28 | 99 | |
| 20260509091427 | 69 | 185 | 1.0 | 2.0 | 0.00 | 0.28 | 0.28 | 99 | |
| 20260509090924 | 69 | 241 | 0.0 | 0.0 | 0.00 | 0.28 | 0.28 | 99 | |
| 20260509090421 | 69 | 254 | 0.0 | 1.0 | 0.00 | 0.28 | 0.28 | 99 | |
| 20260509085919 | 69 | 200 | 1.0 | 2.0 | 0.00 | 0.28 | 0.28 | 99 | |
| 20260509085416 | 69 | 239 | 0.0 | 0.0 | 0.00 | 0.28 | 0.28 | 99 | |
| 20260509084912 | 69 | 245 | 0.0 | 0.0 | 0.00 | 0.28 | 0.28 | 99 | |
| 20260509084409 | 69 | 226 | 1.0 | 1.0 | 0.00 | 0.28 | 0.28 | 99 | |
| 20260509083906 | 69 | 244 | 0.0 | 1.0 | 0.00 | 0.28 | 0.28 | 99 | |
| 20260509083403 | 69 | 226 | 0.0 | 0.0 | 0.00 | 0.28 | 0.28 | 99 | |
| 20260509082900 | 69 | 257 | 0.0 | 0.0 | 0.00 | 0.28 | 0.28 | 99 | |
| 20260509082357 | 69 | 232 | 0.0 | 2.0 | 0.00 | 0.28 | 0.28 | 99 | |
| 20260509081854 | 69 | 229 | 0.0 | 0.0 | 0.00 | 0.28 | 0.28 | 99 | |
| 20260509081351 | 69 | 230 | 0.0 | 0.0 | 0.00 | 0.28 | 0.28 | 99 | |
| 20260509080849 | 69 | 275 | 0.0 | 0.0 | 0.00 | 0.28 | 0.28 | 99 | |
| 20260509080347 | 69 | 257 | 0.0 | 1.0 | 0.00 | 0.28 | 0.28 | 99 | |
| 20260509075845 | 69 | 209 | 1.0 | 5.0 | 0.07 | 0.28 | 0.28 | 99 | |
| 20260509075341 | 69 | 259 | 1.0 | 3.0 | 0.07 | 0.28 | 0.28 | 99 | |
| 20260509074838 | 69 | 168 | 2.0 | 3.0 | 0.05 | 0.27 | 0.27 | 99 | |
| 20260509074336 | 69 | 218 | 1.0 | 5.0 | 0.12 | 0.27 | 0.27 | 99 | |
| 20260509073832 | 69 | 183 | 0.0 | 6.0 | 0.31 | 0.26 | 0.26 | 99 | |
| 20260509073329 | 69 | 183 | 2.0 | 6.0 | 0.35 | 0.25 | 0.25 | 99 | |
| 20260509072826 | 69 | 243 | 1.0 | 2.0 | 0.12 | 0.20 | 0.20 | 99 | |
| 20260509072322 | 69 | 211 | 3.0 | 3.0 | 0.12 | 0.19 | 0.19 | 99 | |
| 20260509071819 | 69 | 244 | 1.0 | 3.0 | 0.31 | 0.18 | 0.18 | 99 | |
| 20260509071316 | 69 | 198 | 2.0 | 6.0 | 0.31 | 0.17 | 0.17 | 99 | |
| 20260509070813 | 69 | 252 | 2.0 | 7.0 | 0.07 | 0.13 | 0.13 | 99 | |
| 20260509070310 | 69 | 195 | 1.0 | 3.0 | 0.12 | 0.12 | 0.12 | 99 | |
| 20260509065806 | 68 | 211 | 5.0 | 9.0 | 0.17 | 0.12 | 0.12 | 99 | |
| 20260509065305 | 68 | 85 | 1.0 | 5.0 | 0.00 | 0.09 | 0.09 | 99 | |
| 20260509064758 | 68 | 257 | 0.0 | 1.0 | 0.00 | 0.09 | 0.09 | 99 | |
| 20260509064256 | 68 | 254 | 1.0 | 3.0 | 0.07 | 0.09 | 0.09 | 99 | |
| 20260509063753 | 68 | 191 | 1.0 | 5.0 | 0.19 | 0.09 | 0.09 | 99 | |
| 20260509063249 | 68 | 193 | 3.0 | 5.0 | 0.17 | 0.08 | 0.08 | 99 | |
| 20260509062747 | 68 | 227 | 0.0 | 1.0 | 0.00 | 0.05 | 0.05 | 99 | |
| 20260509062244 | 68 | 217 | 4.0 | 5.0 | 0.07 | 0.05 | 0.05 | 99 | |
| 20260509061741 | 68 | 207 | 2.0 | 3.0 | 0.19 | 0.05 | 0.05 | 99 | |
| 20260509061239 | 68 | 277 | 0.0 | 1.0 | 0.19 | 0.04 | 0.04 | 99 | |
| 20260509060736 | 68 | 215 | 1.0 | 2.0 | 0.07 | 0.02 | 0.02 | 99 | |
| 20260509060232 | 68 | 237 | 0.0 | 0.0 | 0.00 | 0.01 | 0.01 | 99 | |
| 20260509055728 | 68 | 229 | 0.0 | 1.0 | 0.00 | 0.01 | 0.01 | 99 | |
| 20260509055224 | 68 | 213 | 2.0 | 3.0 | 0.00 | 0.01 | 0.01 | 99 |